Location: Asheville, NC
(35.6000°N, 82.5500°W)
Time: 02:38:00
(UTC-04:00)

BEESAT 3 - Pass Details

Date: 12 March 2018
Orbit: 499 x 517 km, 64.9° (Epoch: 20 June)

Event Time Altitude Azimuth Distance (km) Brightness Sun altitude
Rises 20:24:45 0° 204° (SSW) 2,609 ? -10.9°
Reaches altitude 10° 20:26:55 10° 203° (SSW) 1,729 ? -11.3°
Maximum altitude 20:30:46 76° 118° (ESE) 535 ? -12.1°
Drops below altitude 10° 20:34:41 10° 33° (NNE) 1,747 ? -12.9°
Sets 20:36:52 0° 31° (NNE) 2,639 ? -13.3°
